Regional Weather Roundup
Issued by NWS

Home | Current Version | Previous Version | Text Only | Print | Product List | Glossary On
Versions: 1 2 3 4 5 6 7 8 9 10 11 12 13 14 15 16 17 18 19 20 21 22 23 24 25 26 27 28 29 30 31 32 33 34 35 36 37 38 39 40 41 42 43 44 45 46 47 48 49 50
000
ASUS43 KLMK 240410
RWRKY
KENTUCKY REGIONAL WEATHER ROUNDUP
NATIONAL WEATHER SERVICE LOUISVILLE KY
1200 AM EDT THU APR 24 2014

NOTE "FAIR" INDICATES FEW OR NO CLOUDS BELOW 12,000 FEET
WITH NO SIGNIFICANT WEATHER AND/OR OBSTRUCTIONS TO VISIBILITY.

KYZ001>023-026-027-061>063-070>075-240500-
WESTERN AND SOUTH CENTRAL KENTUCKY

CITY           SKY/WX    TMP DP  RH WIND       PRES   REMARKS
PADUCAH        CLEAR     55  37  50 E5        29.98F
HENDERSON      PTCLDY    55  36  47 E5        30.01S
OWENSBORO      PTCLDY    56  33  41 E9        30.01F
HOPKINSVILLE   CLEAR     53  35  51 E5        30.00F
BOWLING GREEN  MOCLDY    52  32  46 CALM      30.03F
GLASGOW        CLEAR     50  34  53 E3        30.03F
$$

KYZ024-025-028>034-038-045-046-053-240500-
NORTH CENTRAL KENTUCKY

CITY           SKY/WX    TMP DP  RH WIND       PRES   REMARKS
LOUISVILLE/SDF MOCLDY    55  33  43 E7        30.05F
LOUISVILLE/LOU PTCLDY    56  32  40 E6        30.05F
FORT KNOX      MOCLDY    53  32  45 NE7       30.02F
$$

KYZ035>037-039>044-047>052-055>060-089>105-240500-
NORTHEAST KENTUCKY

CITY           SKY/WX    TMP DP  RH WIND       PRES   REMARKS
LEXINGTON      CLEAR     48  33  56 E6        30.07S
COVINGTON      MOCLDY    54  32  43 NE8       30.08S
FRANKFORT      CLEAR     45  35  68 CALM      30.06S
$$

KYZ054-064>069-076>088-106>120-240500-
SOUTHEAST KENTUCKY

CITY           SKY/WX    TMP DP  RH WIND       PRES   REMARKS
JACKSON        CLEAR     49  31  49 CALM      30.07S
LONDON         CLEAR     50  33  52 NE3       30.06F
SOMERSET       CLEAR     50  32  50 CALM      30.07F
MIDDLESBORO    CLEAR     46  37  71 CALM      30.07S
MONTICELLO     CLEAR     45  37  73 CALM      30.07F
$$




USA.gov is the U.S. government's official web portal to all federal, state and local government web resources and services.